Regional Weather Roundup
Issued by NWS Northern Indiana

Home | Current Version | Previous Version | Graphics & Text | Print | Product List | Glossary On
Versions: 1 2 3 4 5 6 7 8 9 10 11 12 13 14 15 16 17 18 19 20 21 22 23 24 25 26 27 28 29 30 31 32 33 34 35 36 37 38 39 40 41 42 43 44 45 46 47 48 49 50
236
ASUS43 KIWX 220210
RWRIWX

KIWX WEATHER ROUNDUP
NATIONAL WEATHER SERVICE NORTHERN INDIANA
1000 PM EDT THU MAY 21 2015

NOTE: "FAIR" INDICATES FEW OR NO CLOUDS BELOW 12,000 FEET WITH NO
SIGNIFICANT WEATHER AND/OR OBSTRUCTIONS TO VISIBILITY.

* THESE STATIONS ARE NOT UNDER NWS QUALITY CONTROL. THEY ALSO MAY NOT
  REPORT WEATHER SUCH AS PRECIPITATION OR FOG.

INZ001>027-220300-
NORTHERN INDIANA

CITY           SKY/WX    TMP DP  RH WIND       PRES   REMARKS
GARY*          CLEAR     50  37  62 VRB7      30.04R
VALPARAISO     CLEAR     55  37  50 SW5       30.04S
MICHIGAN CITY* CLEAR     54  34  47 CALM      30.03S
LAPORTE*       CLEAR     57  37  46 SW6       30.04R
KNOX*          CLEAR     55  34  44 SW6       30.03S
SOUTH BEND     CLEAR     56  35  45 SW5       30.04R
GOSHEN         CLEAR     51  36  56 SW7       30.03S
MONTICELLO*    CLEAR     57  37  48 SW3       30.06R
LOGANSPORT*    CLEAR     54  32  43 W5        30.08R
ROCHESTER*     CLEAR     57  37  47 SW3       30.06R
WARSAW*        CLEAR     50  39  66 CALM      30.05R
ANGOLA*        CLEAR     52  37  58 CALM      30.03R
FORT WAYNE     CLEAR     52  41  66 SW6       30.06R
HUNTINGTON*    CLEAR     49  42  74 CALM      30.05R
PERU/GRISSOM   CLEAR     54  39  56 W8        30.05S
MARION*        CLEAR     53  39  58 W6        30.08R

$$
INZ028>050-220300-
CENTRAL INDIANA

CITY           SKY/WX    TMP DP  RH WIND       PRES   REMARKS
LAFAYETTE      CLEAR     54  39  57 CALM      30.08R
KOKOMO*        CLEAR     55  39  54 W6        30.07R
MUNCIE*        CLEAR     54  38  54 SW5       30.08R
INDIANAPOLIS   CLEAR     55  40  56 SW10      30.09R

$$
MIZ043>046-050>051-056>058-064>065-071>073-077>080-220300-
SOUTHWEST LOWER MICHIGAN

CITY           SKY/WX    TMP DP  RH WIND       PRES   REMARKS
BATTLE CREEK   CLEAR     52  37  56 SW9       30.00S
BENTON HARBOR  CLEAR     55  34  45 SW6       30.00S
COLDWATER*     CLEAR     51  35  55 SW5       30.01S
HILLSDALE*     CLEAR     54  33  46 SW3       30.01S
HOLLAND        CLEAR     57  39  51 SW10      29.98S
GRAND RAPIDS   LGT RAIN  58  39  49 W7        29.98R
KALAMAZOO      CLEAR     53  36  52 SW7       30.01R
STURGIS*       CLEAR     54  36  50 CALM      30.02R
THREE RIVERS*  FAIR      54  35  49 SW5       30.02S

$$
OHZ001>008-015>018-024>025-220300-
NORTHWEST OHIO

CITY           SKY/WX    TMP DP  RH WIND       PRES   REMARKS
WAUSEON*       FAIR      54  36  50 W8        30.02R
DEFIANCE       CLEAR     53  33  46 W3        30.03R
FINDLAY        CLEAR     52  38  58 SW6       30.03R
TOLEDO EXPRESS CLEAR     54  35  48 W8        30.01R
TOLEDO METCALF CLEAR     56  36  47 SW8       30.01R
LIMA           CLEAR     52  38  58 SW8       30.05R

$$
AND FOR LAKE MICHIGAN COASTAL AND OPEN LAKE BUOY OBSERVATIONS

STATION/POSITION TEMP    WIND        PRES    VSBY  WAVE
                 AIR SEA DIR/SP/G                  HT/PER
                 (F)     (DEG/KT/KT) (MB)    (MI)  (FT/S)
CALUMET HARBOR    64     220/  4/  5   N/A
MICHIGAN CITY     62     180/  9/ 10   N/A
BURNS HARBOR      63     210/  7/  9 1017.3S
SAINT JOSEPH      60     180/ 11/ 16 1016.3F
SOUTH LAKE BUOY   45 38  200/ 14/ 16 1015.4R         2/ 4
4 MI NW BRIDGMAN  56 53  240/ 10/ 10   N/A           1
MICHIGAN CITY     56 52  210/  6/  8   N/A           0

$$
&&



USA.gov is the U.S. government's official web portal to all federal, state and local government web resources and services.